EUTELSAT 36D

Last updated on Thu Oct 30 2025 00:02:52 GMT+0000 (Coordinated Universal Time)

1 59346U 24059A 25302.12136954 .00000166 00000+0 00000+0 0 9991 2 59346 0.0154 228.0698 0000189 167.2550 81.9522 1.00272867 5834
UTC large
Height (km)
Speed (km/s)
/
Latitude / Longitude
Inclination (degrees)
Orbital Period (minutes)
Azimuth
Elevation
Range (km)
Doppler Factor

Next 0 passes for location: London (51.5072 / 0.1276)

Sorry there are no passes over London.